Torna al catalogo

YUNHAI 1

AttivoScienzaSSO
NORAD 41857·PAYLOAD·🇨🇳 China

Lanciato Nov 11, 2016 da Jiuquan Satellite Launch Center

Loading…

Prossimi Passaggi (prossime 24 ore)

TLE

AggiornatoSource: Space-Track

Epoca: Sep 14, 2026, 13:30 UTC

1 41857U 16068A   26257.56311009  .00000185  00000-0  84312-4 0  9999
2 41857  98.5863 267.7523 0003923 115.9947 244.1641 14.32514071514629

Traccia YUNHAI 1 in tempo reale con AllMySat

Download on the App Store